TimeEDT,TemperatureF,Dew PointF,Humidity,Sea Level PressureIn,VisibilityMPH,Wind Direction,Wind SpeedMPH,Gust SpeedMPH,PrecipitationIn,Events,Conditions,WindDirDegrees,DateUTC
12:14 AM,26.1,11.3,54,30.17,10.0,WNW,12.7,16.1,N/A,,Clear,290,2013-03-14 04:14:00
12:34 AM,25.7,10.8,53,30.17,10.0,WNW,10.4,-,N/A,,Clear,290,2013-03-14 04:34:00
12:54 AM,25.7,10.4,52,30.17,10.0,West,10.4,-,N/A,,Clear,280,2013-03-14 04:54:00
1:14 AM,25.2,10.4,54,30.17,10.0,WNW,6.9,-,N/A,,Clear,290,2013-03-14 05:14:00
1:35 AM,24.8,10.8,55,30.18,10.0,West,9.2,-,N/A,,Clear,280,2013-03-14 05:35:00
1:54 AM,25.0,10.6,54,30.18,10.0,West,6.9,-,N/A,,Clear,280,2013-03-14 05:54:00
2:14 AM,24.4,11.1,57,30.18,10.0,West,8.1,-,N/A,,Clear,270,2013-03-14 06:14:00
2:35 AM,24.3,11.8,59,30.19,10.0,West,6.9,-,N/A,,Clear,270,2013-03-14 06:35:00
3:14 AM,23.9,13.1,63,30.19,10.0,West,5.8,-,N/A,,Clear,280,2013-03-14 07:14:00
3:35 AM,24.4,14.0,65,30.19,10.0,WNW,8.1,-,N/A,,Clear,290,2013-03-14 07:35:00
3:54 AM,24.3,14.0,65,30.19,10.0,WNW,8.1,-,N/A,,Scattered Clouds,290,2013-03-14 07:54:00
4:14 AM,24.8,14.9,66,30.19,10.0,NW,6.9,-,N/A,,Scattered Clouds,320,2013-03-14 08:14:00
4:35 AM,23.9,14.4,67,30.18,10.0,WNW,5.8,-,N/A,,Clear,300,2013-03-14 08:35:00
4:54 AM,23.4,14.9,70,30.19,10.0,WNW,5.8,-,N/A,,Clear,300,2013-03-14 08:54:00
5:14 AM,22.6,14.5,71,30.19,10.0,WNW,5.8,-,N/A,,Clear,300,2013-03-14 09:14:00
5:35 AM,22.5,14.0,70,30.19,10.0,West,4.6,-,N/A,,Clear,280,2013-03-14 09:35:00
5:54 AM,22.1,14.0,71,30.19,10.0,West,5.8,-,N/A,,Clear,280,2013-03-14 09:54:00
6:15 AM,22.1,14.2,72,30.19,10.0,West,5.8,-,N/A,,Clear,270,2013-03-14 10:15:00
6:34 AM,21.7,14.0,72,30.20,10.0,West,5.8,-,N/A,,Clear,280,2013-03-14 10:34:00
6:54 AM,21.2,14.0,74,30.19,10.0,West,5.8,-,N/A,,Clear,270,2013-03-14 10:54:00
7:15 AM,21.2,14.0,74,30.20,10.0,West,5.8,-,N/A,,Clear,270,2013-03-14 11:15:00
7:34 AM,20.5,13.8,75,30.20,10.0,West,4.6,-,N/A,,Clear,260,2013-03-14 11:34:00
7:54 AM,21.0,14.7,77,30.21,10.0,West,5.8,-,N/A,,Clear,270,2013-03-14 11:54:00
8:14 AM,22.1,15.4,76,30.21,10.0,West,5.8,-,N/A,,Clear,260,2013-03-14 12:14:00
8:34 AM,23.4,15.8,73,30.22,10.0,West,6.9,-,N/A,,Clear,270,2013-03-14 12:34:00
8:55 AM,24.8,16.2,70,30.22,10.0,West,6.9,-,N/A,,Clear,270,2013-03-14 12:55:00
9:14 AM,26.4,16.5,66,30.23,10.0,West,6.9,-,N/A,,Clear,280,2013-03-14 13:14:00
9:34 AM,27.5,16.7,64,30.23,10.0,WNW,6.9,-,N/A,,Clear,290,2013-03-14 13:34:00
9:55 AM,28.4,16.3,61,30.23,10.0,NW,6.9,-,N/A,,Clear,310,2013-03-14 13:55:00
10:14 AM,29.3,16.5,59,30.23,10.0,West,10.4,-,N/A,,Clear,280,2013-03-14 14:14:00
10:34 AM,30.2,16.0,56,30.23,10.0,WNW,10.4,-,N/A,,Clear,290,2013-03-14 14:34:00
10:55 AM,30.7,16.5,56,30.23,10.0,WNW,9.2,-,N/A,,Clear,300,2013-03-14 14:55:00
11:14 AM,31.3,16.0,53,30.23,10.0,West,10.4,-,N/A,,Clear,280,2013-03-14 15:14:00
11:34 AM,32.0,16.3,52,30.22,10.0,WNW,10.4,-,N/A,,Clear,300,2013-03-14 15:34:00
11:55 AM,32.0,16.5,53,30.22,10.0,WNW,10.4,18.4,N/A,,Clear,300,2013-03-14 15:55:00
12:14 PM,32.7,16.9,52,30.22,10.0,WNW,10.4,-,N/A,,Clear,300,2013-03-14 16:14:00
12:34 PM,33.6,18.1,53,30.21,10.0,West,9.2,-,N/A,,Clear,270,2013-03-14 16:34:00
12:54 PM,34.2,17.4,50,30.21,10.0,WNW,5.8,-,N/A,,Clear,300,2013-03-14 16:54:00
1:14 PM,34.5,17.8,50,30.20,10.0,West,10.4,16.1,N/A,,Clear,270,2013-03-14 17:14:00
1:35 PM,35.6,17.8,48,30.19,10.0,West,13.8,-,N/A,,Clear,280,2013-03-14 17:35:00
1:54 PM,35.8,17.1,47,30.18,10.0,West,9.2,-,N/A,,Clear,280,2013-03-14 17:54:00
2:15 PM,36.7,18.0,47,30.17,10.0,WNW,6.9,18.4,N/A,,Clear,290,2013-03-14 18:15:00
2:34 PM,36.7,17.1,45,30.17,10.0,WNW,10.4,-,N/A,,Clear,300,2013-03-14 18:34:00
2:54 PM,37.6,17.4,44,30.16,10.0,WNW,8.1,-,N/A,,Scattered Clouds,300,2013-03-14 18:54:00
3:14 PM,37.6,16.3,42,30.15,10.0,NW,10.4,-,N/A,,Scattered Clouds,310,2013-03-14 19:14:00
3:55 PM,38.7,17.2,42,30.15,10.0,WNW,11.5,20.7,N/A,,Clear,300,2013-03-14 19:55:00
4:14 PM,39.2,17.4,41,30.15,10.0,West,11.5,16.1,N/A,,Clear,270,2013-03-14 20:14:00
4:35 PM,39.4,17.1,41,30.14,10.0,WSW,9.2,20.7,N/A,,Clear,250,2013-03-14 20:35:00
4:54 PM,39.0,16.3,40,30.14,10.0,West,5.8,-,N/A,,Clear,280,2013-03-14 20:54:00
5:14 PM,39.6,16.3,39,30.14,10.0,West,11.5,-,N/A,,Clear,270,2013-03-14 21:14:00
5:35 PM,39.6,16.5,39,30.13,10.0,WNW,9.2,-,N/A,,Clear,290,2013-03-14 21:35:00
5:54 PM,39.4,16.2,39,30.12,10.0,WNW,10.4,17.3,N/A,,Clear,300,2013-03-14 21:54:00
6:14 PM,39.0,14.9,37,30.11,10.0,West,9.2,16.1,N/A,,Clear,280,2013-03-14 22:14:00
6:35 PM,38.3,14.0,37,30.10,10.0,West,11.5,-,N/A,,Clear,270,2013-03-14 22:35:00
6:54 PM,37.9,13.6,37,30.10,10.0,West,8.1,-,N/A,,Clear,270,2013-03-14 22:54:00
7:14 PM,37.6,14.9,40,30.10,10.0,West,6.9,-,N/A,,Clear,270,2013-03-14 23:14:00
7:35 PM,36.0,16.2,45,30.10,10.0,West,4.6,-,N/A,,Clear,260,2013-03-14 23:35:00
7:54 PM,35.4,15.8,45,30.11,10.0,West,4.6,-,N/A,,Clear,280,2013-03-14 23:54:00
8:14 PM,34.3,16.3,48,30.10,10.0,Calm,Calm,-,N/A,,Clear,0,2013-03-15 00:14:00
8:35 PM,34.7,16.3,47,30.09,10.0,SSW,3.5,-,N/A,,Clear,210,2013-03-15 00:35:00
8:54 PM,33.1,17.6,53,30.07,10.0,SSW,4.6,-,N/A,,Clear,210,2013-03-15 00:54:00
9:14 PM,32.5,18.3,56,30.08,10.0,West,4.6,-,N/A,,Clear,260,2013-03-15 01:14:00
9:34 PM,31.8,18.5,58,30.08,10.0,West,4.6,-,N/A,,Clear,260,2013-03-15 01:34:00
9:54 PM,31.8,18.5,58,30.08,10.0,WSW,4.6,-,N/A,,Clear,250,2013-03-15 01:54:00
10:15 PM,31.6,18.9,59,30.08,10.0,WSW,4.6,-,N/A,,Clear,250,2013-03-15 02:15:00
10:34 PM,30.7,19.0,62,30.07,10.0,WSW,5.8,-,N/A,,Clear,240,2013-03-15 02:34:00
10:54 PM,31.1,18.5,60,30.06,10.0,WSW,5.8,-,N/A,,Clear,240,2013-03-15 02:54:00
11:15 PM,30.9,16.5,55,30.06,10.0,WSW,5.8,-,N/A,,Clear,240,2013-03-15 03:15:00
11:34 PM,30.7,15.1,52,30.06,10.0,WSW,6.9,-,N/A,,Clear,250,2013-03-15 03:34:00